Index of /pmb/codes/nwprod/exec

[ICO]NameLast modifiedSizeDescription

[DIR]Parent Directory  -  
[   ]adderrspec_nmcmeth_spec.x25-Jul-2013 18:48 1.3M 
[   ]adderrspec_nmcmeth_spec.x.2013042225-Jul-2013 18:48 1.3M 
[   ]amsu_bin2pack25-Jul-2013 18:48 852K 
[   ]amsu_bintrans25-Jul-2013 18:48 753K 
[   ]amsu_compgfs25-Jul-2013 18:48 767K 
[   ]amsu_oparet25-Jul-2013 18:48 1.1M 
[   ]amsu_pickgfs25-Jul-2013 18:48 802K 
[   ]amsu_pullvar25-Jul-2013 18:48 714K 
[   ]amsu_rcarq125-Jul-2013 18:48 718K 
[   ]amsu_readbufr25-Jul-2013 18:48 1.1M 
[   ]amsu_readcoordinate25-Jul-2013 18:48 763K 
[   ]amsu_tempret25-Jul-2013 18:48 1.0M 
[   ]awc_wafavn25-Jul-2013 18:48 1.8M 
[   ]blending25-Jul-2013 18:48 2.7M 
[   ]bufr2asci_jwhgt25-Jul-2013 18:48 1.1M 
[   ]bufr2asci_wndwave25-Jul-2013 18:48 1.1M 
[   ]bufr_avgdata25-Sep-2013 01:20 1.0M 
[   ]bufr_avgdata.2013032225-Jul-2013 18:48 956K 
[   ]bufr_chkbfr25-Jul-2013 18:48 1.1M 
[   ]bufr_combfr25-Jul-2013 18:48 1.1M 
[   ]bufr_datacount25-Jul-2013 18:48 8.5M 
[   ]bufr_dumpmd25-Jul-2013 18:48 1.1M 
[   ]bufr_dupair25-Jul-2013 18:48 1.2M 
[   ]bufr_dupcor25-Jul-2013 18:48 1.2M 
[   ]bufr_dupmar25-Jul-2013 18:48 1.2M 
[   ]bufr_dupmrg25-Jul-2013 18:48 1.2M 
[   ]bufr_duprad25-Jul-2013 18:48 1.2M 
[   ]bufr_dupsat25-Jul-2013 18:48 1.3M 
[   ]bufr_dupshp25-Jul-2013 18:48 1.2M 
[   ]bufr_dupsst25-Jul-2013 18:48 1.2M 
[   ]bufr_edtbfr25-Jul-2013 18:48 1.3M 
[   ]bufr_geofil25-Jul-2013 18:48 1.2M 
[   ]bufr_listdumps25-Jul-2013 18:48 2.0M 
[   ]bufr_prepmods25-Jul-2013 18:48 1.7M 
[   ]bufr_prepmods.orig25-Nov-2014 01:11 1.7M 
[   ]bufr_quipc25-Jul-2013 18:48 1.2M 
[   ]bufr_raddate25-Jul-2013 18:48 741K 
[   ]bufr_remorest25-Jul-2013 18:48 1.3M 
[   ]bufr_supertmi25-Jul-2013 18:48 1.3M 
[   ]bufr_tranamsua20-Feb-2013 01:00 738K 
[   ]bufr_tranamsub25-Jul-2013 18:48 1.3M 
[   ]bufr_tranavhrr25-Jul-2013 18:48 1.2M 
[   ]bufr_trangoescld25-Jul-2013 18:48 1.2M 
[   ]bufr_trangoessst25-Jul-2013 18:48 1.1M 
[   ]bufr_tranhirs320-Feb-2013 01:00 722K 
[   ]bufr_tranimgr25-Jul-2013 18:48 1.2M 
[   ]bufr_tranjb25-Jul-2013 18:48 1.2M 
[   ]bufr_tranmhs20-Feb-2013 01:00 721K 
[   ]bufr_tranmls25-Jul-2013 18:48 4.8M 
[   ]bufr_tranmls.hold25-Jul-2013 18:48 4.8M 
[   ]bufr_tranmtypsbt25-Jul-2013 18:48 1.1M 
[   ]bufr_tranmtypsbt.hold25-Jul-2013 18:48 1.1M 
[   ]bufr_tranomi25-Jul-2013 18:48 4.7M 
[   ]bufr_tranpoessst25-Jul-2013 18:48 1.1M 
[   ]bufr_tranpoessst.hold25-Jul-2013 18:48 1.1M 
[   ]bufr_tranquik25-Jul-2013 18:48 1.2M 
[   ]bufr_tranrad2p525-Jul-2013 18:48 1.3M 
[   ]bufr_tranrad311-Sep-2013 01:22 1.5M 
[   ]bufr_transatw25-Jul-2013 18:48 1.2M 
[   ]bufr_transsmi25-Jul-2013 18:48 1.4M 
[   ]bufr_transsnd25-Jul-2013 18:48 1.2M 
[   ]bufr_trantmi25-Jul-2013 18:48 1.9M 
[   ]bulls_bufrcyc25-Jul-2013 18:48 1.1M 
[   ]bulls_fdwndtrx25-Jul-2013 18:48 1.0M 
[   ]ccpa_6h_to_3h25-Jul-2013 18:48 1.1M 
[   ]ccpa_accum_1h_files25-Jul-2013 18:48 1.1M 
[   ]ccpa_accum_6h_files25-Jul-2013 18:48 1.1M 
[   ]ccpa_comp_st4_st2_3h_files25-Jul-2013 18:48 1.1M 
[   ]ccpa_daily_to_6h25-Jul-2013 18:48 1.1M 
[   ]ccpa_downscale25-Jul-2013 18:48 1.0M 
[   ]ccpa_scale_rfc25-Jul-2013 18:48 1.1M 
[   ]cdas2_v1_acqc25-Jul-2013 18:48 1.6M 
[   ]cdas2_v1_combbufr25-Jul-2013 18:48 1.0M 
[   ]cdas2_v1_cqc18-Sep-2013 01:25 2.0M 
[   ]cdas2_v1_cqc.2013082324-Aug-2013 01:23 2.1M 
[   ]cdas2_v1_fcst25-Jul-2013 18:48 3.0M 
[   ]cdas2_v1_gribpentad25-Jul-2013 18:48 92K 
[   ]cdas2_v1_oiqc01-Jun-2014 01:07 1.6M 
[   ]cdas2_v1_oiqc.2013082122-Aug-2013 01:16 1.6M 
[   ]cdas2_v1_oiqc.orig25-May-2014 01:07 1.6M 
[   ]cdas2_v1_oiqc_maxpak600031-Oct-2013 01:31 1.6M 
[   ]cdas2_v1_pgb25-Jul-2013 18:48 1.5M 
[   ]cdas2_v1_postvents25-Jul-2013 18:48 1.4M 
[   ]cdas2_v1_precipadj25-Jul-2013 18:48 959K 
[   ]cdas2_v1_prepdate25-Jul-2013 18:48 1.0M 
[   ]cdas2_v1_prevents25-Jul-2013 18:48 1.3M 
[   ]cdas2_v1_sfc25-Jul-2013 18:48 1.3M 
[   ]cdas2_v1_sgb25-Jul-2013 18:48 1.3M 
[   ]cdas2_v1_sig2dbl25-Jul-2013 18:48 725K 
[   ]cdas2_v1_sig2sngl25-Jul-2013 18:48 725K 
[   ]cdas2_v1_sigdate25-Jul-2013 18:48 689K 
[   ]cdas2_v1_ssi25-Jul-2013 18:48 1.9M 
[   ]cdas_cycle25-Jul-2013 18:48 1.4M 
[   ]cdas_ex_grib225-Jul-2013 18:48 37K 
[   ]cdas_ex_level25-Jul-2013 18:48 37K 
[   ]cdas_fix_snowc25-Jul-2013 18:48 93K 
[   ]cdas_igb25-Jul-2013 18:48 1.4M 
[   ]cdas_mrf25-Jul-2013 18:48 2.7M 
[   ]cdas_pgb25-Jul-2013 18:48 1.6M 
[   ]cdas_prepdate25-Jul-2013 18:48 1.0M 
[   ]cdas_sgb25-Jul-2013 18:48 1.2M 
[   ]cdas_sig2dbl25-Jul-2013 18:48 725K 
[   ]cdas_sig2sngl25-Jul-2013 18:48 725K 
[   ]cdas_sigmatime25-Jul-2013 18:48 737K 
[   ]cdas_ssi25-Jul-2013 18:48 2.0M 
[   ]clavrx_hdf2binary25-Jul-2013 18:48 788K 
[   ]clavrx_hdf2binary.hold25-Jul-2013 18:48 788K 
[   ]cld_compact2global25-Jul-2013 18:48 823K 
[   ]cld_convert2box30-Oct-2013 01:16 889K 
[   ]cld_getdate25-Jul-2013 18:48 861K 
[   ]cld_global2grib125-Jul-2013 18:48 967K 
[   ]cld_interp_hgtbl25-Jul-2013 18:48 942K 
[   ]cld_vertcompact_qc25-Jul-2013 18:48 794K 
[   ]cmce_adjust_tmaxmin25-Jul-2013 18:48 1.2M 
[   ]cmce_adjust_tmaxmin_2013032725-Jul-2013 18:48 1.2M 
[   ]cmce_adjust_wind10m25-Jul-2013 18:48 1.2M 
[   ]cmce_adjust_wind10m_2013032725-Jul-2013 18:48 1.2M 
[   ]cmcens_bias25-Jul-2013 18:48 1.2M 
[   ]cmcens_post.parallel25-Jul-2013 18:48 1.2M 
[   ]cpc_dupelim_metar25-Jul-2013 18:48 737K 
[   ]cpc_dupelim_synoptic25-Jul-2013 18:48 734K 
[   ]cpc_elim_tempdew25-Jul-2013 18:48 699K 
[   ]cpc_extract_dewpoint25-Jul-2013 18:48 1.3M 
[   ]cpc_format_metdat25-Jul-2013 18:48 1.3M 
[   ]cpc_format_syndat25-Jul-2013 18:48 1.5M 
[   ]cpc_make_dlysum25-Jul-2013 18:48 1.0M 
[   ]cpg_msset25-Jul-2013 18:48 4.9M 
[   ]cpg_obx25-Jul-2013 18:48 4.8M 
[   ]cpg_tex25-Jul-2013 18:48 4.8M 
[   ]das2_v1_oiqc01-Jun-2014 01:07 1.6M 
[   ]decod_dcacar29-Oct-2013 01:26 1.1M 
[   ]decod_dcacft29-Oct-2013 01:26 1.2M 
[   ]decod_dcalps29-Oct-2013 01:26 1.1M 
[   ]decod_dcaltm29-Oct-2013 01:26 1.1M 
[   ]decod_dcbthy29-Oct-2013 01:26 1.1M 
[   ]decod_dccgrd29-Oct-2013 01:26 1.1M 
[   ]decod_dccoop29-Oct-2013 01:26 1.4M 
[   ]decod_dccrad29-Oct-2013 01:27 1.4M 
[   ]decod_dccrn29-Oct-2013 01:27 1.4M 
[   ]decod_dccsev29-Oct-2013 01:27 1.1M 
[   ]decod_dcdrbu29-Oct-2013 01:27 1.1M 
[   ]decod_dcears29-Oct-2013 01:27 1.1M 
[   ]decod_dcelrw29-Oct-2013 01:27 1.1M 
[   ]decod_dcepfl29-Oct-2013 01:27 1.1M 
[   ]decod_dcgffd29-Oct-2013 01:27 1.1M 
[   ]decod_dcgpsw29-Oct-2013 01:27 1.1M 
[   ]decod_dchydr29-Oct-2013 01:27 1.3M 
[   ]decod_dcigdr29-Oct-2013 01:27 1.1M 
[   ]decod_dcjpfl29-Oct-2013 01:27 1.1M 
[   ]decod_dckora29-Oct-2013 01:27 1.1M 
[   ]decod_dclsfc29-Oct-2013 01:27 1.1M 
[   ]decod_dcltng29-Oct-2013 01:27 1.0M 
[   ]decod_dcmap29-Oct-2013 01:27 1.4M 
[   ]decod_dcmeso29-Oct-2013 01:27 1.4M 
[   ]decod_dcmetr29-Oct-2013 01:27 1.2M 
[   ]decod_dcmopf29-Oct-2013 01:27 1.1M 
[   ]decod_dcmsfc29-Oct-2013 01:27 1.1M 
[   ]decod_dcncld29-Oct-2013 01:27 1.1M 
[   ]decod_dcnxrd29-Oct-2013 01:27 1.1M 
[   ]decod_dcozon29-Oct-2013 01:27 860K 
[   ]decod_dcp3rd29-Oct-2013 01:27 1.1M 
[   ]decod_dcpflr29-Oct-2013 01:27 1.1M 
[   ]decod_dcrast29-Oct-2013 01:27 1.1M 
[   ]decod_dcrocc29-Oct-2013 01:27 860K 
[   ]decod_dcscd29-Oct-2013 01:27 1.1M 
[   ]decod_dcshef29-Oct-2013 01:27 1.6M 
[   ]decod_dctidg29-Oct-2013 01:27 1.1M 
[   ]decod_dcusgs29-Oct-2013 01:27 1.1M 
[   ]decod_dcusnd29-Oct-2013 01:27 1.2M 
[   ]dgex_coldstart25-Jul-2013 18:48 4.7M 
[   ]dgex_combc25-Jul-2013 18:48 1.0M 
[   ]dgex_extract_nemsbdy_alaska25-Jul-2013 18:48 795K 
[   ]dgex_extract_nemsbdy_conus25-Jul-2013 18:48 798K 
[   ]dgex_icwf25-Jul-2013 18:48 1.2M 
[   ]dgex_metgrid25-Jul-2013 18:48 2.1M 
[   ]dgex_mkbnd_alaska25-Jul-2013 18:48 1.9M 
[   ]dgex_mkbnd_conus25-Jul-2013 18:48 1.9M 
[   ]dgex_ncep_post31-Oct-2013 01:31 34M 
[   ]dgex_nems_nmmb_fcst31-Jul-2013 01:12 24M 
[   ]dgex_nems_nmmb_fcst.old072931-Jul-2013 01:12 24M 
[   ]dgex_nemsinterp25-Jul-2013 18:48 3.7M 
[   ]dgex_prdgen25-Jul-2013 18:48 1.3M 
[   ]dgex_ungrib25-Jul-2013 18:48 3.5M 
[   ]dvrtma_bias25-Jul-2013 18:48 1.2M 
[   ]dvrtma_debias25-Jul-2013 18:48 1.2M 
[   ]dvrtma_debias_alaska25-Jul-2013 18:48 1.2M 
[   ]dvrtma_debias_alaska_tmaxmin25-Jul-2013 18:48 1.3M 
[   ]dvrtma_debias_alaska_wind10m25-Jul-2013 18:48 1.3M 
[   ]ekd_eqneval25-Jul-2013 18:48 1.5M 
[   ]ekd_fcstpost25-Jul-2013 18:48 1.7M 
[   ]ekd_granalysis25-Jul-2013 18:48 2.5M 
[   ]ekd_grd2grd25-Jul-2013 18:48 1.3M 
[   ]ekd_gribtomdlpk25-Jul-2013 18:48 2.7M 
[   ]ekd_gridpost25-Jul-2013 18:48 2.5M 
[   ]ekd_makecdf25-Jul-2013 18:48 1.9M 
[   ]ekd_mospred25-Jul-2013 18:48 3.0M 
[   ]ekd_ra2grib225-Jul-2013 18:48 2.4M 
[   ]ekd_ra2ra25-Jul-2013 18:48 1.0M 
[   ]fbwndgfs25-Jul-2013 18:48 1.2M 
[   ]fbwndtrx25-Jul-2013 18:48 1.0M 
[   ]fnmocens_bias25-Jul-2013 18:48 1.2M 
[   ]fnmocens_debias25-Jul-2013 18:48 1.2M 
[   ]gdas_radmon_angle.glb25-Jul-2013 18:48 1.1M 
[   ]gdas_radmon_bcoef.glb25-Jul-2013 18:48 1.0M 
[   ]gdas_radmon_bcor.glb25-Jul-2013 18:48 1.0M 
[   ]gdas_radmon_time.glb25-Jul-2013 18:48 1.1M 
[   ]gefs_bias25-Jul-2013 18:48 1.2M 
[   ]gefs_climate_anomaly25-Jul-2013 18:48 1.2M 
[   ]gefs_climate_anomaly_Xiaoxue25-Jul-2013 18:48 1.2M 
[   ]gefs_debias25-Jul-2013 18:48 1.2M 
[   ]gefs_ensstat25-Jul-2013 18:48 1.2M 
[   ]gefs_ensstat_Xiaoxue25-Jul-2013 18:48 1.2M 
[   ]gefs_global_fcst25-Jul-2013 18:48 24M 
[   ]gefs_global_fcst.saveold041925-Jul-2013 18:49 24M 
[   ]gefs_init_et_p25-Jul-2013 18:49 1.8M 
[   ]gefs_ncep_post31-Oct-2013 01:31 34M 
[   ]gefs_pgrb_enspqpf25-Jul-2013 18:49 1.2M 
[   ]gefs_vortex_combine25-Jul-2013 18:49 1.5M 
[   ]gefs_vortex_separate25-Jul-2013 18:49 1.9M 
[   ]gefs_weights25-Jul-2013 18:49 1.2M 
[   ]getsfcensmean.x25-Jul-2013 18:49 2.0M 
[   ]getsigensmean_smooth.x25-Jul-2013 18:49 1.2M 
[   ]gfdl_date2day25-Jul-2013 18:49 756K 
[   ]gfdl_day2date25-Jul-2013 18:49 752K 
[   ]gfdl_find_region25-Jul-2013 18:49 22K 
[   ]gfdl_getsst25-Jul-2013 18:49 1.4M 
[   ]gfdl_gogfdl25-Jul-2013 18:49 885K 
[   ]gfdl_sharp_mcs_rf_l2m_rmy525-Jul-2013 18:49 1.2M 
[   ]gfs_bufr25-Jul-2013 18:49 1.9M 
[   ]gfs_flux25-Jul-2013 18:49 1.1M 
[   ]gfs_smartinitguam25-Jul-2013 18:49 1.5M 
[   ]gfs_smartmakeprecip25-Jul-2013 18:49 1.1M 
[   ]glmp_ra2grib2_2p525-Jul-2013 18:49 2.4M 
[   ]global_angupdate25-Jul-2013 18:49 1.0M 
[   ]global_angupdate.hold25-Jul-2013 18:49 1.0M 
[   ]global_angupdate.nam25-Jul-2013 18:49 1.0M 
[   ]global_chgres25-Jul-2013 18:49 5.6M 
[   ]global_chgres.2013011625-Jul-2013 18:49 5.6M 
[   ]global_chgres.2013012225-Jul-2013 18:49 5.6M 
[   ]global_chgres.2013032225-Jul-2013 18:49 5.6M 
[   ]global_chgres.nwprod25-Jul-2013 18:49 5.6M 
[   ]global_chgres.sm25-Jul-2013 18:49 5.6M 
[   ]global_cycle25-Jul-2013 18:49 3.1M 
[   ]global_enkf25-Jul-2013 18:49 3.5M 
[   ]global_enkf.20130214.new25-Jul-2013 18:49 3.5M 
[   ]global_enkf.2013031425-Jul-2013 18:49 3.5M 
[   ]global_enkf.2013042225-Jul-2013 18:49 3.5M 
[   ]global_ensadd25-Jul-2013 18:49 1.2M 
[   ]global_enscqpf25-Jul-2013 18:49 1.2M 
[   ]global_enscvprcp25-Jul-2013 18:49 1.2M 
[   ]global_enscvt24h25-Jul-2013 18:49 1.1M 
[   ]global_ensppf25-Jul-2013 18:49 1.2M 
[   ]global_enspqpf25-Jul-2013 18:49 1.2M 
[   ]global_enspqpf_24h_cmc25-Jul-2013 18:49 1.2M 
[   ]global_enspvrfy25-Jul-2013 18:49 1.5M 
[   ]global_ensrfmat30-Aug-2013 01:26 884K 
[   ]global_ensrfmat.biggerArray.071325-Jul-2013 18:49 880K 
[   ]global_ensrfmat.save-orig-071325-Jul-2013 18:49 879K 
[   ]global_enssrbias25-Jul-2013 18:49 921K 
[   ]global_ensstat_cmc25-Jul-2013 18:49 1.2M 
[   ]global_fcst25-Jul-2013 18:49 20M 
[   ]global_fcst.2013011525-Jul-2013 18:49 20M 
[   ]global_gsi25-Jul-2013 18:49 25M 
[   ]global_gsi.2013042225-Jul-2013 18:49 25M 
[   ]global_postevents25-Jul-2013 18:49 2.3M 
[   ]global_postgs25-Jul-2013 18:49 2.8M 
[   ]global_sfchdr25-Jul-2013 18:49 2.0M 
[   ]global_sigavg25-Jul-2013 18:49 1.1M 
[   ]global_sighdr25-Jul-2013 18:49 1.1M 
[   ]global_sigzvd25-Jul-2013 18:49 1.2M 
[   ]glofs_marobs25-Jul-2013 18:49 1.3M 
[   ]godas_Dly2MnthNc25-Jul-2013 18:49 2.0M 
[   ]godas_Dly2PntdNc25-Jul-2013 18:49 2.0M 
[   ]godas_avePrfDly25-Jul-2013 18:49 794K 
[   ]godas_bathybfr25-Jul-2013 18:49 1.1M 
[   ]godas_buoybtbfr25-Jul-2013 18:49 1.1M 
[   ]godas_dailyflx25-Jul-2013 18:49 918K 
[   ]godas_dlyAlt2cyc25-Jul-2013 18:49 847K 
[   ]godas_dw_getBufrJsn25-Jul-2013 18:49 1.1M 
[   ]godas_dw_mkAsmAlt25-Jul-2013 18:49 870K 
[   ]godas_dw_mkAsmPrf25-Jul-2013 18:49 838K 
[   ]godas_dw_mkAsmPrfs25-Jul-2013 18:49 812K 
[   ]godas_dw_mkEvNc25-Jul-2013 18:49 2.0M 
[   ]godas_dw_mom3das25-Jul-2013 18:49 11M 
[   ]godas_editPrf25-Jul-2013 18:49 2.0M 
[   ]godas_gdas2g3i25-Jul-2013 18:49 920K 
[   ]godas_getBufrJsn25-Jul-2013 18:49 1.1M 
[   ]godas_mkAsmAlt25-Jul-2013 18:49 870K 
[   ]godas_mkAsmPrf25-Jul-2013 18:49 819K 
[   ]godas_mkAsmPrfs25-Jul-2013 18:49 814K 
[   ]godas_mkEvNc25-Jul-2013 18:49 2.0M 
[   ]godas_mkLSAchv25-Jul-2013 18:49 745K 
[   ]godas_mkSEv25-Jul-2013 18:49 756K 
[   ]godas_mom3das25-Jul-2013 18:49 11M 
[   ]godas_mppnccombine25-Jul-2013 18:49 1.2M 
[   ]godas_mrgPrf25-Jul-2013 18:49 743K 
[   ]godas_nc2grib25-Jul-2013 18:49 2.2M 
[   ]godas_sst2g3i25-Jul-2013 18:49 940K 
[   ]godas_tmSrtPrf25-Jul-2013 18:49 767K 
[   ]godas_trkAveCyc25-Jul-2013 18:49 831K 
[   ]graph_airpolt125-Jul-2013 18:49 1.7M 
[   ]grib_snowgrib25-Jul-2013 18:49 1.5M 
[   ]gribcld_clavrx25-Jul-2013 18:49 972K 
[   ]hpc_mostxt25-Jul-2013 18:49 781K 
[   ]ingest_shef2buf25-Jul-2013 18:49 1.1M 
[   ]ingest_shefdcod25-Jul-2013 18:49 874K 
[   ]job.info25-Jul-2013 18:49 45  
[   ]mdl_c10_gen25-Jul-2013 18:49 967K 
[   ]mdl_cy_puv1025-Jul-2013 18:49 965K 
[   ]mdl_eqneval25-Jul-2013 18:49 1.5M 
[   ]mdl_ext_6h25-Jul-2013 18:49 1.1M 
[   ]mdl_fcstpost25-Jul-2013 18:49 1.6M 
[   ]mdl_fecn21tx25-Jul-2013 18:49 1.0M 
[   ]mdl_focn20tx25-Jul-2013 18:49 1.0M 
[   ]mdl_gefsmextx25-Jul-2013 18:49 1.0M 
[   ]mdl_gfsmavtx25-Jul-2013 18:49 1.0M 
[   ]mdl_gfsmcgtx25-Jul-2013 18:49 1.0M 
[   ]mdl_gfsmcxtx25-Jul-2013 18:49 1.0M 
[   ]mdl_gfsmextx25-Jul-2013 18:49 1.0M 
[   ]mdl_gfsmmgtx25-Jul-2013 18:49 1.0M 
[   ]mdl_granalysis25-Jul-2013 18:49 1.9M 
[   ]mdl_granalysis_ak25-Jul-2013 18:49 2.3M 
[   ]mdl_granalysis_co25-Jul-2013 18:49 2.3M 
[   ]mdl_granalysis_hi25-Jul-2013 18:49 2.3M 
[   ]mdl_grb2mdlp25-Jul-2013 18:49 1.0M 
[   ]mdl_grb2mdlp.hold25-Jul-2013 18:49 1.0M 
[   ]mdl_grb2tomdlp25-Jul-2013 18:49 2.7M 
[   ]mdl_grd2grd25-Jul-2013 18:49 1.2M 
[   ]mdl_gridarch25-Jul-2013 18:49 2.3M 
[   ]mdl_gridmerge25-Jul-2013 18:49 2.1M 
[   ]mdl_gridpost25-Jul-2013 18:49 2.3M 
[   ]mdl_hrlytbl25-Jul-2013 18:49 1.2M 
[   ]mdl_hrlytbl.hold25-Jul-2013 18:49 1.2M 
[   ]mdl_hrqpf_eqneval25-Jul-2013 18:49 1.6M 
[   ]mdl_hrqpf_eqneval_2013030525-Jul-2013 18:49 1.6M 
[   ]mdl_hrqpf_eqneval_debug25-Jul-2013 18:49 2.1M 
[   ]mdl_hrqpf_eqneval_nodebug25-Jul-2013 18:49 1.5M 
[   ]mdl_hrqpf_fcstpost25-Jul-2013 18:49 1.7M 
[   ]mdl_hrqpf_grd2grd25-Jul-2013 18:49 1.2M 
[   ]mdl_hrqpf_mospred25-Jul-2013 18:49 2.6M 
[   ]mdl_hrqpf_ra2ra25-Jul-2013 18:49 1.0M 
[   ]mdl_hrqpf_rainit25-Jul-2013 18:49 1.0M 
[   ]mdl_hrqpf_vect2grid25-Jul-2013 18:49 1.2M 
[   ]mdl_mdlsurge25-Jul-2013 18:49 754K 
[   ]mdl_mos2bufr25-Jul-2013 18:49 1.0M 
[   ]mdl_mospred25-Jul-2013 18:49 2.7M 
[   ]mdl_nammettx25-Jul-2013 18:49 1.0M 
[   ]mdl_nammmetx25-Jul-2013 18:49 1.0M 
[   ]mdl_obsprep25-Jul-2013 18:49 941K 
[   ]mdl_ra2grib25-Jul-2013 18:49 1.3M 
[   ]mdl_ra2grib225-Jul-2013 18:49 2.4M 
[   ]mdl_ra2mdlp25-Jul-2013 18:49 1.3M 
[   ]mdl_racreate25-Jul-2013 18:49 755K 
[   ]mdl_rainit25-Jul-2013 18:49 1.0M 
[   ]mdl_ramerge25-Jul-2013 18:49 1.3M 
[   ]mdl_rfcftptx25-Jul-2013 18:49 1.0M 
[   ]mdl_seq2ra25-Jul-2013 18:49 1.0M 
[   ]mdl_vect2grid25-Jul-2013 18:49 1.2M 
[   ]naefs_bc_probability25-Jul-2013 18:49 1.3M 
[   ]naefs_climate_anv25-Jul-2013 18:49 1.2M 
[   ]nam_addprecip25-Jul-2013 18:49 1.1M 
[   ]nam_angupdate25-Jul-2013 18:49 1.0M 
[   ]nam_coldstart25-Jul-2013 18:49 4.7M 
[   ]nam_combc25-Jul-2013 18:49 1.0M 
[   ]nam_cpc2grbrfc825-Jul-2013 18:49 1.0M 
[   ]nam_firewx_gridspecs25-Jul-2013 18:49 838K 
[   ]nam_geogrid_firewx25-Jul-2013 18:49 2.6M 
[   ]nam_get1236hpcp25-Jul-2013 18:49 1.0M 
[   ]nam_gridgen_sfc25-Jul-2013 18:49 1.8M 
[   ]nam_gsi07-Jun-2014 01:08 23M 
[   ]nam_gsi.2014060607-Jun-2014 01:08 23M 
[   ]nam_ice2mdl25-Jul-2013 18:49 1.9M 
[   ]nam_icwf25-Jul-2013 18:49 1.2M 
[   ]nam_lspasno24h25-Jul-2013 18:49 1.0M 
[   ]nam_makeprecip_15025-Jul-2013 18:49 1.0M 
[   ]nam_makeprecip_15125-Jul-2013 18:49 1.0M 
[   ]nam_makeprecip_21225-Jul-2013 18:49 1.0M 
[   ]nam_makeprecip_21525-Jul-2013 18:49 1.0M 
[   ]nam_makeprecip_21725-Jul-2013 18:49 1.1M 
[   ]nam_makeprecip_21825-Jul-2013 18:49 1.0M 
[   ]nam_makeprecip_24225-Jul-2013 18:49 1.0M 
[   ]nam_makeprecip_afwaak25-Jul-2013 18:49 1.0M 
[   ]nam_makeprecip_afwaca25-Jul-2013 18:49 1.0M 
[   ]nam_makeprecip_afwacs25-Jul-2013 18:49 1.0M 
[   ]nam_makeprecip_afwahi25-Jul-2013 18:49 1.0M 
[   ]nam_merge2n425-Jul-2013 18:49 1.0M 
[   ]nam_metgrid25-Jul-2013 18:49 2.1M 
[   ]nam_mkbnd25-Jul-2013 18:49 1.9M 
[   ]nam_ncep_post31-Oct-2013 01:31 33M 
[   ]nam_nems_nmmb_fcst31-Jul-2013 01:12 24M 
[   ]nam_nems_nmmb_fcst.old25-Jul-2013 18:49 24M 
[   ]nam_nems_nmmb_fcst.old072931-Jul-2013 01:12 24M 
[   ]nam_nemsinterp25-Jul-2013 18:49 3.7M 
[   ]nam_nemsinterp.2013052325-Jul-2013 18:49 3.7M 
[   ]nam_pcpbudget25-Jul-2013 18:49 898K 
[   ]nam_pcpprep25-Jul-2013 18:49 1.0M 
[   ]nam_post025-Jul-2013 18:49 2.3M 
[   ]nam_prdgen25-Jul-2013 18:49 1.3M 
[   ]nam_sfcupdate25-Jul-2013 18:49 2.6M 
[   ]nam_smartinit25-Jul-2013 18:49 1.5M 
[   ]nam_smartprecip25-Jul-2013 18:49 1.1M 
[   ]nam_sndp25-Jul-2013 18:49 1.3M 
[   ]nam_sndp.old25-Jul-2013 18:49 1.3M 
[   ]nam_snow2mdl25-Jul-2013 18:49 3.2M 
[   ]nam_sst2mdl25-Jul-2013 18:49 1.9M 
[   ]nam_stnmlist25-Jul-2013 18:49 1.1M 
[   ]nam_ungrib25-Jul-2013 18:49 3.5M 
[   ]ncep2maptime25-Jul-2013 18:49 733K 
[   ]ncep_post31-Oct-2013 01:31 33M 
[   ]ncep_post.2013020725-Jul-2013 18:49 34M 
[   ]ncep_post.2013032025-Jul-2013 18:49 34M 
[   ]nesdis_extract_goessst25-Jul-2013 18:49 1.1M 
[   ]nhc_psurge_envmerge25-Jul-2013 18:49 411K 
[   ]nhc_psurge_nhctrk25-Jul-2013 18:49 100K 
[   ]nhc_psurge_penv25-Jul-2013 18:49 32K 
[   ]nhc_psurge_slosh25-Jul-2013 18:49 1.5M 
[   ]ofs_ab2prof25-Jul-2013 18:49 1.0M 
[   ]ofs_abot25-Jul-2013 18:49 963K 
[   ]ofs_adh25-Jul-2013 18:49 1.0M 
[   ]ofs_archv2data2d25-Jul-2013 18:49 3.4M 
[   ]ofs_archv2data2d_insitu25-Jul-2013 18:49 3.4M 
[   ]ofs_archv2data3z_insitu25-Jul-2013 18:49 3.4M 
[   ]ofs_bias_fld_H25-Jul-2013 18:49 856K 
[   ]ofs_boxin25-Jul-2013 18:49 880K 
[   ]ofs_boxinv25-Jul-2013 18:49 910K 
[   ]ofs_bufr_decdst25-Jul-2013 18:49 1.1M 
[   ]ofs_combine_ssh25-Jul-2013 18:49 725K 
[   ]ofs_correct_forcing25-Jul-2013 18:49 938K 
[   ]ofs_dcodmobs25-Jul-2013 18:49 1.1M 
[   ]ofs_edit_restart25-Jul-2013 18:49 1.4M 
[   ]ofs_forecast03-Sep-2014 01:01 2.6M 
[   ]ofs_get_station25-Jul-2013 18:49 744K 
[   ]ofs_getdata_river25-Jul-2013 18:49 1.1M 
[   ]ofs_getgds225-Nov-2014 01:11 2.1M 
[   ]ofs_getkpds25-Jul-2013 18:49 824K 
[   ]ofs_getsat_mods25-Jul-2013 18:49 1.1M 
[   ]ofs_gfs2ofs25-Jul-2013 18:49 1.5M 
[   ]ofs_hires_ingrib_array25-Jul-2013 18:49 1.2M 
[   ]ofs_hires_ingrib_vector25-Jul-2013 18:49 1.2M 
[   ]ofs_ingrib_array25-Jul-2013 18:49 1.2M 
[   ]ofs_ingrib_vector25-Jul-2013 18:49 1.2M 
[   ]ofs_inova25-Jul-2013 18:49 1.0M 
[   ]ofs_inova_v25-Jul-2013 18:49 864K 
[   ]ofs_latlon25-Jul-2013 18:49 1.2M 
[   ]ofs_lfilter_ssh25-Jul-2013 18:49 761K 
[   ]ofs_lowfreq_mean25-Jul-2013 18:49 698K 
[   ]ofs_merge25-Jul-2013 18:49 1.0M 
[   ]ofs_merge_inova25-Jul-2013 18:49 857K 
[   ]ofs_metar25-Jul-2013 18:49 1.2M 
[   ]ofs_qc_river25-Jul-2013 18:49 692K 
[   ]ofs_read_alps_mods25-Jul-2013 18:49 1.1M 
[   ]ofs_rivers25-Jul-2013 18:49 950K 
[   ]ofs_spread25-Jul-2013 18:49 1.7M 
[   ]ofs_z2layer_f25-Jul-2013 18:49 864K 
[   ]overparm_grib25-Jul-2013 18:49 740K 
[   ]poes_physstret25-Jul-2013 18:49 23M 
[   ]poes_physstret_navy25-Jul-2013 18:49 23M 
[   ]poes_physstret_nesd25-Jul-2013 18:49 23M 
[   ]prepobs_cqcbufr25-Jul-2013 18:49 2.1M 
[   ]prepobs_cqcvad25-Jul-2013 18:49 3.3M 
[   ]prepobs_listheaders25-Jul-2013 18:49 1.1M 
[   ]prepobs_monoprepbufr25-Jul-2013 18:49 1.2M 
[   ]prepobs_mpcopybufr25-Jul-2013 18:49 1.2M 
[   ]prepobs_oiqcbufr25-Jul-2013 18:49 1.5M 
[   ]prepobs_prepacpf25-Jul-2013 18:49 1.3M 
[   ]prepobs_prepacqc26-Jul-2014 01:04 2.8M 
[   ]prepobs_prepacqc.new24-Jul-2014 01:04 2.8M 
[   ]prepobs_prepacqc_orig25-Jul-2014 01:03 2.8M 
[   ]prepobs_prepanow14-Aug-2013 01:16 1.1M 
[   ]prepobs_prepdata25-Jul-2013 18:49 3.5M 
[   ]prepobs_prepdata.new25-Jul-2013 18:49 4.7M 
[   ]prepobs_prevents28-Jan-2014 01:16 2.6M 
[   ]prepobs_prevents.cdas25-Jan-2014 01:11 2.6M 
[   ]prepobs_prevents.hold28-Jan-2014 01:16 2.6M 
[   ]prepobs_profcqc25-Jul-2013 18:49 1.6M 
[   ]radar_reflectivity_mosaic25-Jul-2013 18:49 447K 
[   ]radar_reflectivity_ref2grb25-Jul-2013 18:49 1.0M 
[   ]radar_uncomp_sup2p525-Jul-2013 18:49 215K 
[   ]rcdas_bctend25-Jul-2013 18:49 774K 
[   ]rcdas_bufr2i3e25-Jul-2013 18:49 1.1M 
[   ]rcdas_bufr_extrat1b25-Jul-2013 18:49 944K 
[   ]rcdas_bufr_extrtv1b25-Jul-2013 18:49 944K 
[   ]rcdas_conus_precip25-Jul-2013 18:49 1.5M 
[   ]rcdas_disag_us_mex25-Jul-2013 18:49 797K 
[   ]rcdas_edasfcst7x125-Jul-2013 18:49 3.4M 
[   ]rcdas_editbufr25-Jul-2013 18:49 1.2M 
[   ]rcdas_etapost25-Jul-2013 18:49 2.2M 
[   ]rcdas_fix_rr125-Jul-2013 18:49 130K 
[   ]rcdas_fix_rr_conv25-Jul-2013 18:49 97K 
[   ]rcdas_fix_rr_mask25-Jul-2013 18:49 281K 
[   ]rcdas_g6tor3x25-Jul-2013 18:49 1.1M 
[   ]rcdas_getsst25-Jul-2013 18:49 1.2M 
[   ]rcdas_gribify_cmorph25-Jul-2013 18:49 93K 
[   ]rcdas_gribify_conus_gauge25-Jul-2013 18:49 92K 
[   ]rcdas_gribify_us_mex25-Jul-2013 18:49 92K 
[   ]rcdas_gribify_us_mex225-Jul-2013 18:49 345K 
[   ]rcdas_gridtobs25-Jul-2013 18:49 1.3M 
[   ]rcdas_grtorr225-Jul-2013 18:49 1.1M 
[   ]rcdas_iceblend25-Jul-2013 18:49 1.0M 
[   ]rcdas_mkbnd25-Jul-2013 18:49 1.4M 
[   ]rcdas_new_date25-Jul-2013 18:49 30K 
[   ]rcdas_pcpto3225-Jul-2013 18:49 1.1M 
[   ]rcdas_prdgen25-Jul-2013 18:49 1.3M 
[   ]rcdas_prepfits25-Jul-2013 18:49 1.6M 
[   ]rcdas_r3dvar25-Jul-2013 18:49 6.8M 
[   ]rcdas_rot_vector25-Jul-2013 18:49 128K 
[   ]rcdas_rrvents25-Jul-2013 18:49 1.1M 
[   ]rcdas_snowget25-Jul-2013 18:49 1.1M 
[   ]rcdas_window1b_h1b25-Jul-2013 18:49 771K 
[   ]rcdas_window1b_m1b25-Jul-2013 18:49 770K 
[   ]rcliper_algorithm25-Jul-2013 18:49 1.0M 
[   ]rcliper_shear25-Jul-2013 18:49 1.0M 
[   ]realtime_hrlymonx25-Jul-2013 18:49 817K 
[   ]realtime_modelmonx25-Jul-2013 18:49 781K 
[   ]realtime_models_convert_gem09-Apr-2014 01:05 757K 
[   ]realtime_models_convert_gem.save040809-Apr-2014 01:05 740K 
[   ]recentersigp.x25-Jul-2013 18:49 1.1M 
[   ]relocate_mv_nvortex25-Jul-2013 18:49 2.1M 
[   ]rtgssthr_adjguess25-Jul-2013 18:49 904K 
[   ]rtgssthr_biascor25-Jul-2013 18:49 906K 
[   ]rtgssthr_biascor_amsre25-Jul-2013 18:49 902K 
[   ]rtgssthr_evalavg25-Jul-2013 18:49 1.0M 
[   ]rtgssthr_evalregn25-Jul-2013 18:49 1.1M 
[   ]rtgssthr_insdt25-Jul-2013 18:49 905K 
[   ]rtgssthr_rthranl425-Jul-2013 18:49 2.6M 
[   ]rtgssthr_sat25-Jul-2013 18:49 1.2M 
[   ]rtgssthr_sat_amsre25-Jul-2013 18:49 1.2M 
[   ]rtgssthr_satmerge25-Jul-2013 18:49 832K 
[   ]rtgssthr_satsplit25-Jul-2013 18:49 1.1M 
[   ]rtgssthr_shp25-Jul-2013 18:49 1.1M 
[   ]rtgssthr_superins25-Jul-2013 18:49 943K 
[   ]rtgssthr_supersat25-Jul-2013 18:49 791K 
[   ]rtgssthr_supersat_amsre25-Jul-2013 18:49 791K 
[   ]rtgssthr_verfbuoy25-Jul-2013 18:49 772K 
[   ]rtofs_archv2ncdf2d25-Jul-2013 18:49 3.4M 
[   ]rtofs_archv2ncdf3z25-Jul-2013 18:49 3.4M 
[   ]rtofs_atmforcing25-Jul-2013 18:49 1.5M 
[   ]rtofs_atmforcing_correct25-Jul-2013 18:49 1.0M 
[   ]rtofs_cdo25-Jul-2013 18:49 15M 
[   ]rtofs_forecast25-Jul-2013 18:49 3.0M 
[   ]rtofs_getkpds25-Jul-2013 18:49 824K 
[   ]rtofs_hycom_range25-Jul-2013 18:49 749K 
[DIR]save-oldnetcdf/25-Jul-2013 18:49 -  
[   ]sdm_acar25-Jul-2013 18:49 1.1M 
[   ]sdm_acftqc25-Jul-2013 18:49 1.1M 
[   ]sdm_acqc25-Jul-2013 18:49 1.1M 
[   ]sdm_cardinal25-Jul-2013 18:49 1.1M 
[   ]sdm_edtlst25-Jul-2013 18:49 844K 
[   ]sdm_listadp25-Jul-2013 18:49 1.1M 
[   ]sdm_listq25-Jul-2013 18:49 1.1M 
[   ]sdm_listsuper25-Jul-2013 18:49 1.1M 
[   ]sdm_move_sdmedit25-Jul-2013 18:49 26K 
[   ]sdm_prtout25-Jul-2013 18:49 1.1M 
[   ]sdm_readqc25-Jul-2013 18:49 754K 
[   ]sdm_sdmair25-Jul-2013 18:49 737K 
[   ]sdm_sdmedit_ibm825-Jul-2013 18:49 1.4M 
[   ]sdm_twin25-Jul-2013 18:49 721K 
[   ]sdm_upaair25-Jul-2013 18:49 755K 
[   ]sdmraob_finduarpt25-Jul-2013 18:49 1.0M 
[   ]sffdsf25-Jul-2013 18:49 1.6M 
[   ]snow2mdl25-Jul-2013 18:49 3.2M 
[   ]snow_sno8grb25-Jul-2013 18:49 1.0M 
[   ]snow_sno16grb25-Jul-2013 18:49 1.0M 
[   ]snow_sno96grb25-Jul-2013 18:49 1.0M 
[   ]sst2dvar_adjguess25-Jul-2013 18:49 903K 
[   ]sst2dvar_biascor25-Jul-2013 18:49 866K 
[   ]sst2dvar_evalavg25-Jul-2013 18:49 1.0M 
[   ]sst2dvar_evalregn25-Jul-2013 18:49 1.1M 
[   ]sst2dvar_grids25-Jul-2013 18:49 1.0M 
[   ]sst2dvar_insdt25-Jul-2013 18:49 884K 
[   ]sst2dvar_namsst25-Jul-2013 18:49 1.1M 
[   ]sst2dvar_rthranl325-Jul-2013 18:49 1.6M 
[   ]sst2dvar_sat25-Jul-2013 18:49 1.2M 
[   ]sst2dvar_shp25-Jul-2013 18:49 1.1M 
[   ]sst2dvar_superins25-Jul-2013 18:49 935K 
[   ]sst2dvar_supersat25-Jul-2013 18:49 774K 
[   ]sst2dvar_verfbuoy25-Jul-2013 18:49 772K 
[   ]sstoi_adjguess25-Jul-2013 18:49 909K 
[   ]sstoi_anl25-Jul-2013 18:49 1.3M 
[   ]sstoi_biascor25-Jul-2013 18:49 935K 
[   ]sstoi_grids25-Jul-2013 18:49 1.1M 
[   ]sstoi_insdt25-Jul-2013 18:49 917K 
[   ]sstoi_namsst25-Jul-2013 18:49 1.1M 
[   ]sstoi_sat25-Jul-2013 18:49 1.1M 
[   ]sstoi_shp25-Jul-2013 18:49 1.1M 
[   ]sstoi_superins25-Jul-2013 18:49 936K 
[   ]sstoi_supersat25-Jul-2013 18:49 833K 
[   ]sstoiqd_amsr25-Jul-2013 18:49 2.1M 
[   ]sstoiqd_avhrr25-Jul-2013 18:49 1.3M 
[   ]sstoiqd_eotbiascor425-Jul-2013 18:49 934K 
[   ]sstoiqd_eotbiaswt425-Jul-2013 18:49 1.0M 
[   ]sstoiqd_grib2sst25-Jul-2013 18:49 1.8M 
[   ]sstoiqd_gribsst25-Jul-2013 18:49 1.0M 
[   ]sstoiqd_ice2_1440x72025-Jul-2013 18:49 893K 
[   ]sstoiqd_ice2sst_med25-Jul-2013 18:49 882K 
[   ]sstoiqd_insitu25-Jul-2013 18:49 1.3M 
[   ]sstoiqd_oisst425-Jul-2013 18:49 1.1M 
[   ]sstoiqd_shipbias425-Jul-2013 18:49 798K 
[   ]syndat_getjtbul25-Jul-2013 18:49 788K 
[   ]syndat_maksynrc25-Jul-2013 18:49 844K 
[   ]syndat_qctropcy25-Jul-2013 18:49 1.6M 
[   ]syndat_syndata25-Jul-2013 18:49 5.6M 
[   ]thanks_realtimex25-Jul-2013 18:49 1.1M 
[DIR]toBeRemove/23-Apr-2014 01:08 -  
[   ]tpc_psurge_envmerge20-Aug-2013 01:13 411K 
[   ]tpc_psurge_nhctrk20-Aug-2013 01:13 100K 
[   ]tpc_psurge_penv20-Aug-2013 01:13 32K 
[   ]tpc_psurge_slosh20-Aug-2013 01:13 1.5M 
[   ]uv_index_grid_311-Sep-2013 01:22 1.0M 
[   ]uv_index_grid_3.hold25-Jul-2013 18:49 1.0M 
[   ]uv_index_grid_611-Sep-2013 01:22 1.0M 
[   ]uv_index_grid_6.hold25-Jul-2013 18:49 1.0M 
[   ]uv_uv24hr11-Sep-2013 01:22 965K 
[   ]uv_uvlist11-Sep-2013 01:22 786K 
[   ]verf_g2g_grid2grid25-Jul-2013 18:49 2.3M 
[   ]wave_dcodquikscat25-Jul-2013 18:49 1.4M 
[   ]wsr88d_level206-Nov-2013 01:22 2.0M